Location: ??
(35.5653°N, 139.6194°E)
Time: 00:38:58
(UTC+00:00)

Daily predictions for brighter satellites

Satellite Brightness Start Highest point End
(mag) Time Altitude Azimuth Time Altitude Azimuth Time Altitude Azimuth
Cosmos 1697 Rocket 4.3 07:55:14 10° NNE 07:57:57 14° NE 08:00:40 10° E
ERBS 4.5 07:57:19 10° W 07:59:39 18° NW 08:01:59 10° N
CZ-2C R/B 3.3 07:57:07 10° S 08:02:14 73° WSW 08:07:08 10° NNW
Cosmos 2082 Rocket 3.8 08:00:33 10° SE 08:03:42 15° E 08:06:52 10° ENE
Cosmos 1763 Rocket 3.8 07:59:22 10° S 08:04:08 43° ESE 08:08:55 10° NNE
USA 234 3.3 07:57:50 10° SE 08:04:18 70° NE 08:10:48 10° NW
Cosmos 1656 4.4 08:01:19 10° N 08:06:12 31° ENE 08:11:07 10° ESE
COSMOS 2406 4.1 08:02:40 10° SSE 08:07:37 31° ESE 08:12:34 10° NE
Cosmos 2034 Rocket 4.0 08:02:03 10° S 08:08:12 74° E 08:14:20 10° N
NOSS 3-1 (C) 4.5 08:03:11 10° NNW 08:10:31 44° NE 08:18:51 10° ESE
MOS 1-B Rocket 4.3 08:06:29 10° NNE 08:12:11 51° E 08:18:39 10° S
PAYLOAD B 4.5 08:09:09 10° SE 08:14:28 47° ENE 08:19:50 10° N
Lacrosse 5 1.9 08:09:27 10° NW 08:14:35 87° SW 08:19:41 10° SE
Cosmos 1408 Rocket 3.5 08:13:10 10° N 08:17:31 80° E 08:21:53 10° S
CZ-4B R/B 4.4 08:14:38 10° S 08:18:43 43° W 08:22:38 10° NNW
Cosmos 1743 Rocket 3.8 08:17:30 10° N 08:21:38 43° E 08:25:44 10° SSE
Cosmos 1782 3.6 08:21:53 10° SSE 08:25:24 30° E 08:28:48 10° NNE
CORIOLIS 4.2 08:23:16 10° SSE 08:28:38 83° WSW 08:34:04 10° NNW
AQUARIUS 4.3 08:25:01 10° S 08:29:28 77° WSW 08:33:59 10° NNW
Cosmos 1634 Rocket 4.1 08:28:00 10° SSE 08:34:05 54° E 08:40:13 10° NNE
Cosmos 1833 Rocket 2.6 08:31:34 10° SSW 08:37:09 76° ESE 08:42:46 10° NNE
Meteor 1-20 Rocket 4.3 08:31:37 10° N 08:37:24 62° E 08:43:10 10° SSE
Cosmos 1151 Rocket 4.1 08:35:28 10° SE 08:38:53 24° E 08:39:25 23° ENE
Cosmos 1812 3.8 08:37:15 10° SE 08:40:23 24° E 08:40:23 24° E
SKYMED 2 3.5 08:36:12 10° NNE 08:40:33 69° ESE 08:44:51 10° S
CZ-4C R/B 3.7 08:40:16 28° E 08:40:36 29° E 08:43:30 10° SSE
CZ-4B R/B 3.2 08:35:23 10° SSE 08:40:43 55° ENE 08:46:00 10° N
Cosmos 1340 Rocket 2.8 08:38:03 10° N 08:42:07 89° W 08:46:11 10° S
COSMOS 2455 3.1 08:40:25 10° S 08:46:07 46° ESE 08:49:54 21° NE
Cosmos 1933 3.3 08:42:24 10° S 08:46:28 84° W 08:50:32 10° N
ARGOS 3.3 08:41:41 10° SE 08:46:53 49° ENE 08:52:05 10° N
SJ 16-02 3.3 08:45:05 10° NW 08:48:56 31° W 08:52:49 10° SSW
Cosmos 1500 Rocket 3.8 08:47:46 10° N 08:52:12 73° W 08:56:35 10° S
H-2A R/B 2.1 08:47:39 10° SSE 08:52:57 84° WSW 08:58:08 10° NNW
Cosmos 1602 3.6 08:50:50 10° N 08:54:39 63° E 08:58:28 10° SSE
Cosmos 2026 Rocket 3.9 08:49:16 10° N 08:55:23 66° E 09:01:24 10° SSE
Cosmos 2195 Rocket 4.4 08:51:14 10° N 08:57:25 82° E 09:03:36 10° S
CZ-2D R/B 4.4 08:57:44 10° S 09:01:26 46° W 09:05:09 10° NNW
Cosmos 1898 Rocket 3.5 08:57:13 10° N 09:02:25 58° ENE 09:07:31 10° SSE
Cosmos 1805 Rocket 3.4 08:58:40 10° N 09:03:01 82° E 09:07:20 10° S
CZ-4C R/B 4.2 08:58:38 10° N 09:03:41 20° NE 09:03:41 20° NE
Chunghua 1 4.4 09:00:31 10° W 09:04:16 82° S 09:04:55 58° ESE
H-2A R/B 4.0 09:11:29 17° SE 09:11:29 17° SE 09:12:46 10° SSE
Meteor 2-21 4.3 09:02:56 10° N 09:09:02 76° E 09:15:04 10° SSE
YAOGAN 3 4.5 09:06:28 10° SSE 09:10:49 88° ENE 09:15:11 10° NNW
Centaur D-1A AC-32 3.8 09:09:21 10° WSW 09:13:31 24° S 09:15:07 18° SSE
CZ-2C R/B 3.1 09:08:33 10° N 09:13:39 57° WNW 09:18:40 10° SSW
Cosmos 540 Rocket 3.7 09:08:41 10° SSW 09:13:45 69° WNW 09:17:44 17° N
Sich 1 2.8 09:10:48 10° N 09:15:06 87° E 09:19:24 10° S
Cosmos 44 3.3 09:15:40 10° NW 09:20:18 70° WSW 09:24:01 14° SSE
SL-08 RB Rocket 3.6 09:17:06 10° SSE 09:21:45 76° ENE 09:26:24 10° N
DMSP B5D1-3 4.4 09:24:32 54° NE 09:25:29 66° ESE 09:30:33 10° S
COSMO-SKYMED 1 4.3 09:24:38 10° N 09:28:28 31° WNW 09:32:18 10° SW
Meteor 1-5 Rocket 4.3 09:22:50 10° N 09:28:44 57° E 09:34:31 10° SSE
Okean O Rocket 2.3 09:25:23 10° S 09:29:43 55° W 09:34:05 10° NNW
ATLAS CENTAUR R/B 4.3 09:21:23 10° WSW 09:30:15 31° NW 09:33:18 18° N
GPS 2-04 Rocket1 3.0 09:27:00 10° W 09:30:32 65° WSW 09:30:32 65° WSW
GEOS 3 Rocket 3.5 09:31:05 57° ESE 09:32:07 75° NE 09:37:19 10° NNW
NOAA 15 4.4 09:27:15 10° SSE 09:32:31 70° ENE 09:37:47 10° N
Cosmos 2369 4.1 09:27:44 10° NNW 09:32:09 45° NNE 09:32:09 45° NNE
USA 229 DEB 3.8 09:27:23 10° NNW 09:34:54 74° ENE 09:39:28 28° SE
USA 229 3.8 09:27:29 10° NNW 09:34:59 74° ENE 09:39:23 29° SE
Meteor 2-15 4.3 09:31:04 10° S 09:37:07 65° E 09:37:34 62° ENE
BREEZE M DEB (TANK) 3.8 09:21:39 10° NW 09:38:43 90° SE 09:40:26 50° SE
Cosmos 1697 Rocket 2.7 09:36:56 10° NNW 09:42:34 80° WSW 09:45:43 27° SSE
IRAS Rocket 4.1 09:41:55 58° NNE 09:43:04 89° WNW 09:48:35 10° SSW
DMSP B5D2-2 4.1 09:42:12 49° N 09:43:37 77° WNW 09:48:49 10° SSW
Cosmos 1980 Rocket 3.5 09:38:57 10° N 09:41:29 26° N 09:41:29 26° N
Cosmos 841 Rocket 4.5 09:42:08 10° SW 09:47:03 43° WNW 09:49:28 26° NNW
Cosmos 2082 Rocket 2.6 09:41:33 10° SSW 09:47:10 61° WNW 09:49:02 41° N
Cosmos 1937 Rocket 3.7 09:45:30 10° NNW 09:50:47 68° WSW 09:52:46 38° S
Meteor 2-6 Rocket 4.3 09:46:38 10° SSW 09:52:30 78° W 09:53:42 57° NNW
NOSS 3-1 (A) 4.3 09:50:28 10° NW 09:58:27 76° WSW 10:07:28 10° SSE
ATLAS 3B CENTAUR R/B 4.2 10:17:58 10° WSW 10:35:15 57° S 10:36:34 55° SSE
CZ-4C R/B 4.3 10:45:47 10° NNW 10:48:54 29° NNW 10:48:54 29° NNW
